Tracking 30743 objects as of 20-Jun-2025
HD Live streaming from Space Station
objects crossing your sky now

PEGASUS R/B

Track PEGASUS R/B now!
10-day predictions


NORAD ID: 23548
Int'l Code: 1995-017D
Perigee: 714.7 km
Apogee: 733.2 km
Inclination: 70.0 °
Period: 99.1 minutes
Semi major axis: 7094 km
RCS: 1.5717 m2 (large)
Launch date: April 3, 1995
Source: United States (US)
Launch site: AIR FORCE WESTERN TEST RANGE (AFWTR)

Note: This is a ROCKET BODY
Your satellite tracking list
Your tracking list is empty




NASA's NSSDC Master Catalog

Two Line Element Set (TLE):
1 23548U 95017D   25171.60005508  .00000268  00000-0  80665-4 0  9999
2 23548  69.9887 294.7688 0013013 267.6203 103.5365 14.52718869598139
Source of the keplerian elements: AFSPC